Tracking 29018 objects as of 14-Jun-2024
HD Live streaming from Space Station
objects crossing your sky now

STARLINK-31006

Track STARLINK-31006 now!
10-day predictions
STARLINK-31006 is classified as:


NORAD ID: 59024
Int'l Code: 2024-038B
Perigee: 449.6 km
Apogee: 452.6 km
Inclination: 43.0 °
Period: 93.5 minutes
Semi major axis: 6822 km
RCS: Unknown
Launch date: February 25, 2024
Source: United States (US)
Launch site: AIR FORCE EASTERN TEST RANGE (AFETR)
Your satellite tracking list
Your tracking list is empty




NASA's NSSDC Master Catalog

Two Line Element Set (TLE):
1 59024U 24038B   24165.58616984  .00006337  00000-0  15870-3 0  9995
2 59024  42.9999 348.7817 0002183 250.7751 109.2869 15.40727216 18002
Source of the keplerian elements: AFSPC